Temperature
18 18 18 18 18 18 18 18 18 18 18 18 18 18 18 18 18 18 18 18 18 18 18 18 18 18 17 17 17 17 17 17 17 17 17 17 17 16 16 16 16 16 16
18 18 18 18 18 18 18 18 18 18 18 18 18 18 18 18 18 18 18 18 18 18 18 18 18 18 17 17 17 17 17 17 17 17 17 17 16 16 16 16 16 16 16
18 18 18 18 18 18 18 18 18 18 18 18 18 18 18 18 18 18 18 18 18 18 18 18 18 18 17 17 17 17 17 17 17 17 17 17 17 17 16 16 16 16 16
18 18 18 18 18 18 18 18 18 18 18 18 18 18 18 18 18 18 18 18 18 18 18 18 18 18 17 17 17 17 17 17 17 17 17 17 17 17 17 16 16 16 16
18 18 18 18 18 18 18 18 18 18 18 18 18 18 18 18 18 18 18 18 18 18 18 18 18 17 17 17 17 17 17 17 17 17 17 17 17 17 17 16 16 16 16
18 18 18 18 18 18 18 18 18 18 18 18 18 18 18 18 18 18 18 18 18 18 18 18 17 17 17 17 17 17 17 17 17 17 17 17 17 17 17 16 16 16 16
18 18 18 18 18 18 18 18 18 18 18 18 18 18 18 18 18 18 18 18 18 18 18 18 18 17 17 17 17 17 17 17 17 17 17 17 17 17 17 16 16 16 16
18 18 18 18 18 18 18 18 18 18 18 18 17 17 17 18 18 18 18 18 18 18 18 18 17 17 17 17 17 17 17 17 17 17 17 17 17 17 16 16 16 16 16
18 18 18 18 18 18 18 18 18 18 18 18 17 17 17 17 17 18 18 18 18 18 17 17 17 17 17 17 17 17 17 17 17 17 17 17 17 16 16 16 16 16 16
18 18 18 18 18 18 18 18 18 18 18 18 18 17 17 17 17 17 17 18 17 17 17 17 17 17 17 17 17 17 17 17 17 17 17 17 16 16 16 16 16 16 16
18 18 18 18 18 18 18 18 18 18 18 18 18 18 17 17 17 17 17 17 17 17 17 17 17 17 17 17 17 17 17 17 17 17 17 16 16 16 16 16 16 16 16
18 18 18 18 18 18 18 18 18 18 18 18 18 18 18 17 17 17 17 17 17 17 17 17 17 17 17 17 17 17 17 17 17 17 17 16 16 16 16 16 16 16 16
18 18 18 18 18 18 18 18 18 18 18 18 18 18 17 17 17 17 17 17 17 17 17 17 17 17 17 17 17 17 17 17 17 17 17 16 16 16 16 16 16 16 16
19 18 18 18 18 18 18 18 18 18 17 17 17 17 17 17 17 17 17 17 16 17 17 17 17 17 17 17 17 17 17 17 17 17 16 16 16 16 16 16 16 16 16
18 18 18 18 18 18 18 18 17 17 17 17 17 17 17 17 17 17 17 17 16 16 16 17 17 17 17 17 17 16 16 17 16 16 16 16 16 16 16 16 16 16 15
18 18 18 18 18 18 18 18 17 17 17 17 17 17 17 17 17 17 17 16 16 16 16 16 17 17 16 16 16 16 16 16 16 16 16 16 16 16 16 16 15 15 15
18 18 18 18 18 17 17 17 17 17 17 17 17 17 17 17 17 17 16 16 16 16 16 16 16 16 16 16 16 16 16 16 16 16 16 16 16 16 16 16 15 15 15
18 18 18 17 17 17 17 17 17 17 17 17 17 17 17 16 16 16 16 16 16 16 16 16 16 16 16 16 16 15 16 16 16 16 16 16 16 16 15 15 15 15 15
18 17 17 17 17 17 17 17 17 17 17 17 16 16 16 16 16 16 16 16 16 16 16 16 16 16 16 15 15 15 15 15 15 15 15 15 15 15 15 15 15 15 15
18 17 17 17 17 17 17 17 17 16 16 16 16 16 16 16 16 16 16 16 16 16 15 15 15 15 15 15 15 15 15 15 15 15 15 15 15 15 15 15 15 15 14
17 17 17 17 17 17 16 16 16 16 16 16 16 16 16 15 15 15 15 15 15 15 15 15 15 15 15 15 15 15 14 15 15 15 15 15 15 15 15 14 14 14 14
17 17 17 16 16 16 16 16 16 16 16 16 16 15 15 15 15 15 15 15 15 15 15 15 15 15 15 15 14 14 14 14 14 14 14 14 14 14 14 14 14 14 14
17 16 16 16 16 16 16 16 16 16 15 15 15 15 15 15 15 15 15 15 15 14 14 14 14 14 14 14 14 14 14 14 14 14 14 14 14 14 14 14 14 13 13
16 16 16 16 15 15 15 15 15 15 15 15 15 15 15 15 14 14 14 14 14 14 14 14 14 14 14 14 14 14 14 14 14 13 13 13 13 13 13 13 13 13 13
16 16 15 15 15 15 15 15 15 15 15 15 15 14 14 14 14 14 14 14 14 14 14 13 14 14 14 13 13 13 13 13 13 13 13 13 13 13 13 13 13 13 13
16 15 15 15 15 15 15 15 15 14 14 14 14 14 14 14 14 14 14 14 14 14 13 13 13 13 13 13 13 13 13 13 13 13 13 13 13 12 12 12 12 12 12
Wind_Speed
5 5 4 5 5 5 5 4 4 3 3 2 3 5 5 7 8 9 11 16 17 17 17 16 16 15 15 14 14 13 12 12 11 11 11 11 10 11 11 10 10 9 8
6 5 4 4 4 6 6 5 4 3 2 2 2 3 4 5 8 9 9 12 15 16 17 17 16 16 15 15 14 14 13 13 12 12 12 12 12 11 12 12 11 10 10
7 6 4 4 4 6 6 4 3 2 2 2 1 2 3 4 6 8 9 10 12 14 16 16 16 16 16 15 14 14 13 13 12 12 12 12 12 12 12 12 12 11 10
8 6 4 3 4 4 4 3 3 2 2 2 1 2 2 3 5 7 8 9 10 11 13 15 15 15 15 15 15 15 14 14 13 13 13 12 12 12 12 13 13 12 11
9 6 4 3 4 3 2 3 3 3 2 2 2 2 2 2 3 5 6 8 10 11 11 14 16 16 16 15 15 15 15 14 13 13 13 13 13 13 12 12 12 12 11
8 6 4 3 4 3 2 2 2 2 2 2 1 1 1 2 2 3 5 6 8 10 12 12 13 14 16 16 16 16 15 15 14 13 13 13 13 13 13 13 13 12 12
8 6 4 3 3 3 4 4 3 2 2 2 1 1 3 2 2 3 3 3 5 8 10 11 11 11 12 16 17 17 16 16 15 14 14 13 13 13 13 13 14 13 12
7 7 5 4 4 3 3 4 3 2 2 2 2 1 2 3 3 2 2 3 4 4 6 9 11 11 10 10 13 16 17 17 16 15 15 14 14 13 13 14 14 14 13
7 6 5 5 4 4 4 4 4 4 3 3 3 3 2 3 2 2 2 2 3 3 3 4 8 10 10 10 10 13 15 15 16 16 15 15 14 14 14 14 14 14 14
6 6 5 5 4 4 4 4 4 4 4 3 2 2 3 3 2 2 3 2 2 2 3 4 5 7 9 9 9 11 14 15 16 16 16 15 14 15 15 15 14 14 14
4 5 4 4 4 4 4 4 3 4 4 4 3 2 2 1 2 2 2 3 2 2 3 4 4 5 7 8 9 10 12 13 14 15 16 16 15 15 15 15 15 14 14
2 3 3 4 4 4 4 4 4 4 4 4 3 2 3 2 2 2 3 3 3 3 3 2 3 4 6 8 9 11 12 13 14 15 15 16 17 16 16 15 15 15 14
3 4 4 3 4 4 4 4 4 4 4 4 4 4 3 3 3 3 3 2 2 3 2 2 3 4 5 7 9 12 13 14 14 15 15 16 17 16 16 16 15 15 15
4 4 4 4 4 4 4 4 3 3 3 3 4 3 3 3 3 3 3 3 1 2 2 4 2 3 4 5 8 10 10 12 14 14 14 15 15 15 16 16 16 15 15
4 4 4 4 4 3 4 4 3 4 3 3 4 3 3 3 3 3 3 4 4 3 4 4 3 3 3 5 7 7 8 10 13 13 14 14 14 15 15 16 16 15 15
4 4 4 4 4 4 3 3 3 3 3 3 3 3 3 3 2 3 3 3 4 4 4 4 4 3 2 4 6 6 7 9 11 12 14 14 14 15 16 16 16 16 15
5 4 4 5 4 4 3 3 3 3 3 4 3 3 4 3 2 2 2 3 3 3 4 4 3 2 2 3 3 4 5 6 7 9 11 12 13 13 14 14 15 15 15
5 5 4 4 4 4 4 4 4 3 3 3 4 3 4 3 3 3 2 3 3 3 4 4 3 2 3 3 2 2 3 4 5 7 9 10 11 12 13 13 13 14 15
5 4 4 4 4 4 4 4 4 4 3 4 4 3 4 3 3 3 3 3 3 3 3 3 3 2 2 2 1 2 3 2 4 5 7 8 10 10 11 12 13 13 14
5 5 5 5 4 4 4 3 4 4 4 3 3 3 4 4 4 4 3 3 3 3 2 2 2 2 2 2 1 2 2 2 3 3 3 5 6 8 9 11 11 11 12
5 4 4 4 4 4 4 4 4 4 4 3 3 3 4 4 5 4 3 3 3 2 2 2 2 2 2 2 2 2 3 2 3 2 1 2 2 3 5 8 10 11 12
4 4 5 5 5 5 5 5 4 3 4 4 4 4 3 3 3 3 4 4 4 4 4 3 3 4 5 4 3 3 2 1 3 2 2 3 2 3 4 6 8 10 11
5 4 5 5 5 5 6 5 6 4 4 4 5 4 4 3 2 2 3 3 3 4 6 6 5 5 5 5 4 4 4 4 4 3 2 2 2 3 4 6 8 9 10
5 5 4 4 4 5 6 6 5 4 4 4 5 5 4 3 3 3 3 3 3 3 4 4 5 6 5 4 5 6 5 4 2 2 2 2 2 3 3 4 6 8 9
4 4 3 4 4 4 5 5 4 3 2 3 3 3 3 3 4 4 3 3 3 5 5 5 6 6 6 6 4 2 2 2 2 2 2 2 2 2 2 3 4 6 9
5 4 3 3 3 3 3 3 4 2 2 2 2 2 3 3 4 4 3 3 4 5 4 3 3 4 4 4 5 5 5 4 2 2 3 2 2 1 1 2 2 3 4
Wind_Direction
161 165 174 180 188 192 193 198 205 202 214 217 202 177 176 175 179 179 188 193 194 196 197 197 198 199 202 202 203 205 205 206 206 209 210 210 211 208 205 206 209 209 210
167 167 170 180 195 200 204 200 197 188 196 185 180 181 188 182 178 184 188 194 199 200 202 203 202 203 204 205 207 207 210 214 212 214 214 214 214 213 211 212 213 213 213
166 165 164 173 191 195 193 189 186 166 168 177 193 205 200 201 186 188 192 195 200 203 206 206 207 208 208 208 209 209 213 212 212 214 215 215 217 216 215 215 215 214 216
169 162 159 181 193 180 168 162 168 159 174 181 191 219 222 212 200 195 195 195 198 201 206 209 212 213 212 212 211 211 213 215 216 216 216 215 215 216 218 219 218 216 219
173 166 163 182 184 171 174 187 173 168 174 189 198 220 235 224 214 204 200 200 201 202 204 211 215 213 214 215 215 214 214 215 217 218 217 216 217 218 218 218 216 215 217
176 171 168 183 175 162 177 176 173 171 173 183 197 273 274 245 227 211 210 206 208 210 210 211 212 215 217 218 219 219 220 219 218 217 218 217 218 219 219 218 217 215 215
182 174 176 184 180 182 189 182 166 165 181 145 106 345 330 308 245 230 215 206 210 215 210 209 210 210 217 221 223 223 224 223 221 220 220 219 219 219 218 218 217 214 215
188 186 181 188 186 177 178 181 163 164 195 168 147 122 331 331 315 250 223 213 214 210 206 210 208 208 213 215 221 224 226 226 224 223 221 220 219 218 219 219 218 217 218
191 191 182 186 187 182 190 196 182 176 196 209 178 158 169 231 289 307 267 233 220 210 219 216 212 212 213 215 220 224 224 225 225 224 223 222 221 220 220 221 221 221 221
190 191 186 187 190 189 193 199 188 185 179 201 217 203 187 172 180 287 313 286 241 216 222 229 220 213 210 214 220 223 223 224 224 225 225 225 223 221 220 221 222 223 223
194 191 191 186 189 196 199 200 191 188 187 190 196 198 199 188 169 177 263 302 307 264 237 225 220 213 212 214 219 224 224 225 226 228 229 227 225 224 223 223 224 225 224
204 204 190 194 196 197 200 203 200 196 202 196 195 185 172 182 196 187 215 253 273 279 266 242 222 216 217 217 222 225 225 226 227 231 232 231 229 226 225 226 226 227 226
207 215 209 206 207 205 199 199 196 202 205 201 206 207 199 208 188 179 187 227 258 278 285 265 236 217 221 220 228 229 228 225 228 232 235 235 233 229 226 225 225 224 225
202 200 201 206 211 208 204 199 203 208 207 211 216 207 207 219 200 188 184 183 239 280 269 263 262 230 226 227 232 229 231 229 231 234 235 235 231 229 228 224 225 224 223
191 188 191 200 211 212 209 193 203 213 207 211 217 210 213 227 216 211 197 185 185 228 254 251 248 248 235 237 239 228 230 234 232 232 233 233 231 229 228 225 225 224 223
192 181 184 193 206 214 211 198 202 220 210 222 215 210 226 236 235 227 214 206 195 199 232 241 236 256 251 248 252 236 234 236 236 237 234 233 233 231 228 227 226 224 223
185 185 181 189 199 205 198 188 202 206 217 232 227 217 229 220 224 233 219 210 209 197 227 258 240 252 238 260 273 256 249 238 242 237 235 233 232 231 229 228 226 225 225
185 184 177 183 198 201 197 197 210 210 210 227 232 226 239 229 225 228 219 221 221 212 207 246 258 246 240 242 250 270 264 256 246 247 240 235 235 234 231 227 226 225 225
188 189 182 185 198 200 199 207 208 206 209 223 227 223 232 223 236 239 232 230 229 227 209 222 253 249 252 254 272 283 281 283 270 263 247 240 239 236 232 229 227 226 225
186 192 194 194 197 197 197 205 209 207 213 223 224 221 226 223 230 233 233 234 228 225 219 218 247 263 261 264 220 260 289 285 274 276 262 250 244 239 235 232 228 224 222
193 195 196 204 206 206 209 201 212 214 213 224 232 235 238 231 224 225 229 228 223 220 218 221 242 248 256 247 238 237 253 273 277 256 270 267 246 239 239 235 228 222 217
199 193 202 209 214 223 220 208 202 216 213 215 230 243 248 232 232 242 243 227 210 209 217 218 231 234 239 232 229 228 226 247 272 254 216 260 227 242 238 230 230 221 216
199 204 211 209 218 227 220 212 213 210 217 223 227 231 242 243 217 241 272 270 253 232 208 202 220 235 235 226 216 227 225 226 237 227 191 251 250 255 255 238 226 216 214
196 203 208 213 220 232 226 224 221 212 218 227 229 219 220 227 227 218 241 266 269 259 235 214 218 235 237 230 212 213 222 231 258 239 182 227 247 255 261 253 230 221 216
194 202 201 204 219 245 236 221 207 209 229 241 238 222 207 214 232 215 206 237 267 273 262 249 245 248 252 249 222 190 199 194 255 253 211 192 239 260 265 259 245 230 221
192 194 198 204 210 234 240 215 182 182 225 259 263 251 233 226 237 214 205 218 247 263 274 288 288 284 271 261 227 202 197 200 219 245 223 181 209 180 284 269 253 247 236
Height
1545 1547 1548 1550 1551 1552 1554 1555 1556 1557 1558 1558 1559 1560 1560 1561 1562 1562 1563 1564 1564 1565 1565 1566 1566 1567 1568 1568 1569 1569 1570 1570 1571 1571 1572 1573 1573 1574 1574 1575 1575 1576 1576
1546 1547 1548 1550 1551 1552 1554 1555 1556 1556 1557 1558 1559 1559 1560 1561 1561 1561 1562 1562 1563 1564 1564 1565 1565 1566 1566 1567 1568 1568 1568 1569 1569 1570 1571 1571 1572 1572 1573 1573 1574 1574 1575
1546 1547 1548 1550 1551 1552 1553 1554 1555 1556 1557 1557 1558 1559 1559 1560 1560 1560 1561 1561 1562 1562 1563 1564 1564 1565 1565 1566 1566 1567 1567 1568 1568 1569 1569 1570 1570 1570 1571 1572 1572 1573 1573
1546 1547 1548 1550 1551 1552 1553 1554 1555 1555 1556 1556 1557 1557 1558 1559 1559 1559 1559 1560 1560 1561 1561 1562 1562 1563 1564 1564 1564 1565 1565 1566 1566 1567 1567 1568 1568 1568 1569 1570 1570 1571 1571
1546 1547 1548 1549 1550 1551 1552 1553 1553 1554 1555 1555 1556 1556 1557 1557 1557 1557 1558 1558 1558 1559 1559 1560 1560 1561 1562 1562 1563 1563 1563 1564 1564 1565 1565 1566 1566 1566 1567 1567 1568 1569 1569
1546 1547 1548 1549 1550 1550 1551 1552 1553 1553 1554 1554 1555 1555 1555 1555 1555 1555 1556 1556 1557 1557 1557 1558 1559 1559 1559 1560 1560 1561 1561 1562 1562 1562 1563 1563 1564 1564 1564 1565 1566 1566 1567
1545 1546 1547 1548 1549 1549 1550 1551 1552 1552 1552 1553 1553 1554 1554 1554 1554 1554 1554 1554 1555 1555 1556 1556 1556 1557 1557 1558 1558 1559 1559 1560 1560 1560 1560 1561 1561 1562 1562 1563 1563 1564 1564
1544 1545 1546 1547 1547 1548 1549 1549 1550 1551 1551 1552 1552 1552 1552 1553 1552 1552 1552 1552 1552 1553 1553 1554 1554 1554 1555 1555 1556 1556 1557 1557 1557 1557 1558 1558 1559 1559 1560 1560 1561 1561 1561
1543 1544 1544 1545 1546 1546 1547 1548 1548 1549 1549 1550 1550 1551 1550 1549 1550 1550 1550 1550 1550 1551 1551 1551 1551 1551 1552 1552 1553 1553 1554 1554 1554 1555 1555 1556 1556 1557 1557 1557 1558 1558 1559
1542 1543 1543 1544 1544 1545 1545 1546 1547 1547 1547 1548 1548 1549 1549 1549 1549 1548 1548 1548 1548 1548 1548 1548 1548 1549 1549 1549 1550 1551 1551 1551 1552 1552 1552 1553 1553 1554 1554 1554 1555 1555 1556
1540 1540 1541 1542 1542 1543 1543 1544 1544 1545 1545 1545 1545 1546 1547 1547 1547 1546 1546 1546 1546 1546 1547 1546 1546 1546 1546 1547 1547 1548 1548 1549 1549 1549 1550 1550 1550 1550 1551 1551 1551 1552 1552
1538 1538 1539 1540 1540 1540 1541 1541 1542 1542 1542 1542 1543 1543 1544 1544 1544 1544 1544 1543 1543 1544 1544 1544 1544 1544 1544 1544 1544 1545 1545 1546 1546 1546 1546 1547 1547 1547 1547 1548 1548 1548 1549
1535 1536 1537 1537 1538 1538 1538 1539 1539 1539 1540 1540 1540 1540 1541 1541 1542 1542 1542 1541 1541 1541 1541 1541 1541 1541 1541 1542 1542 1542 1543 1543 1543 1543 1543 1543 1543 1543 1544 1544 1544 1545 1545
1533 1534 1534 1535 1536 1536 1536 1536 1536 1537 1537 1537 1538 1538 1538 1539 1539 1539 1540 1539 1539 1538 1538 1538 1538 1538 1538 1539 1539 1539 1539 1539 1539 1539 1539 1539 1539 1540 1540 1540 1540 1541 1541
1531 1532 1532 1532 1533 1534 1534 1534 1534 1534 1535 1535 1535 1535 1536 1536 1536 1537 1537 1537 1538 1536 1535 1535 1535 1535 1535 1536 1536 1536 1536 1536 1535 1535 1535 1535 1535 1536 1536 1536 1536 1537 1538
1529 1529 1529 1530 1530 1531 1531 1531 1531 1531 1532 1532 1532 1532 1533 1533 1533 1534 1534 1534 1534 1534 1532 1532 1532 1533 1533 1533 1533 1532 1532 1532 1532 1532 1532 1532 1532 1532 1532 1532 1532 1533 1533
1526 1527 1527 1527 1528 1528 1528 1528 1528 1528 1528 1528 1529 1529 1529 1530 1530 1530 1530 1530 1530 1530 1529 1529 1529 1529 1529 1529 1529 1529 1528 1528 1528 1528 1528 1528 1528 1528 1528 1528 1528 1528 1529
1524 1524 1524 1525 1525 1525 1525 1525 1525 1525 1525 1525 1525 1525 1526 1526 1526 1527 1527 1526 1527 1526 1526 1525 1525 1525 1526 1526 1525 1525 1525 1525 1524 1524 1524 1524 1524 1524 1524 1524 1524 1525 1525
1521 1521 1522 1522 1522 1522 1522 1522 1522 1522 1522 1522 1522 1522 1522 1523 1522 1523 1522 1522 1523 1523 1522 1522 1521 1522 1522 1522 1521 1521 1521 1521 1521 1520 1520 1520 1520 1520 1520 1520 1520 1521 1521
1518 1518 1519 1519 1519 1519 1519 1519 1519 1519 1519 1519 1519 1519 1519 1519 1519 1519 1519 1519 1519 1519 1519 1518 1518 1518 1518 1518 1517 1517 1516 1517 1516 1516 1516 1516 1516 1516 1516 1516 1516 1516 1517
1514 1515 1516 1516 1516 1516 1515 1515 1515 1515 1515 1515 1515 1515 1516 1516 1515 1515 1515 1515 1515 1515 1515 1514 1514 1514 1514 1514 1513 1513 1513 1513 1512 1512 1512 1512 1512 1512 1512 1512 1512 1512 1512
1511 1511 1512 1512 1512 1512 1512 1512 1512 1512 1512 1512 1512 1512 1512 1512 1512 1512 1512 1511 1511 1511 1511 1511 1510 1510 1510 1510 1510 1510 1510 1509 1508 1509 1508 1507 1507 1507 1507 1508 1508 1508 1508
1507 1507 1508 1508 1508 1508 1509 1508 1508 1508 1508 1508 1508 1508 1508 1508 1508 1508 1508 1508 1507 1507 1508 1508 1507 1507 1507 1507 1506 1506 1506 1505 1504 1505 1504 1503 1503 1503 1503 1503 1504 1504 1504
1503 1503 1504 1504 1505 1505 1505 1505 1505 1505 1504 1504 1504 1504 1503 1503 1504 1504 1504 1503 1503 1503 1503 1504 1504 1503 1503 1503 1503 1503 1502 1502 1502 1501 1501 1500 1499 1499 1499 1500 1500 1500 1500
1499 1500 1500 1501 1501 1501 1501 1501 1501 1501 1500 1500 1500 1499 1499 1498 1499 1499 1499 1499 1499 1499 1499 1500 1500 1500 1500 1499 1499 1499 1498 1497 1496 1497 1497 1496 1495 1495 1495 1495 1496 1496 1496
1495 1496 1496 1497 1497 1497 1497 1497 1497 1497 1496 1495 1495 1495 1495 1495 1494 1494 1495 1495 1494 1495 1495 1495 1495 1496 1495 1495 1495 1494 1494 1493 1493 1492 1492 1493 1492 1492 1491 1492 1492 1492 1492